Terminal Aerodrome Forecast
Issued by NWS Burlington, VT

Home | Current Version | Previous Version | Text Only | Print | Product List | Glossary On
Versions: 1 2 3 4 5 6 7 8 9 10 11 12 13
000
FTUS41 KBTV 260526
TAFBTV
TAF
KBTV 260526Z 2606/2706 VRB04KT P6SM OVC060
     FM261400 32006KT P6SM SCT035 OVC060
     FM261800 33007KT P6SM BKN035
     FM270200 VRB03KT P6SM OVC030=

USA.gov is the U.S. government's official web portal to all federal, state and local government web resources and services.